| time (UTC) | temp F | wind direction | speed MPH | gust MPH | rain 1hr in | rain 24hr in | rain mn in | humidity % | barometer mb |
| 20260901033526 | 64 | 270 | 9.0 | 18.0 | 0.00 | 0.00 | 0.00 | 45 | |
| 20260901032535 | 64 | 281 | 10.0 | 22.0 | 0.00 | 0.00 | 0.00 | 44 | |
| 20260901031608 | 63 | 277 | 11.0 | 26.0 | 0.00 | 0.00 | 0.00 | 45 | |
| 20260901030534 | 64 | 279 | 9.0 | 22.0 | 0.00 | 0.00 | 0.00 | 45 | |
| 20260901025527 | 63 | 282 | 10.0 | 26.0 | 0.00 | 0.00 | 0.00 | 44 | |
| 20260901024554 | 63 | 276 | 10.0 | 19.0 | 0.00 | 0.00 | 0.00 | 49 | |
| 20260901023527 | 63 | 273 | 7.0 | 15.0 | 0.00 | 0.00 | 0.00 | 54 | |
| 20260901022535 | 62 | 283 | 12.0 | 23.0 | 0.00 | 0.00 | 0.00 | 54 | |
| 20260901021527 | 62 | 291 | 12.0 | 21.0 | 0.00 | 0.00 | 0.00 | 53 | |
| 20260901020534 | 62 | 283 | 10.0 | 17.0 | 0.00 | 0.00 | 0.00 | 52 | |
| 20260901015527 | 62 | 279 | 10.0 | 23.0 | 0.00 | 0.00 | 0.00 | 53 | |
| 20260901014534 | 62 | 295 | 10.0 | 21.0 | 0.00 | 0.00 | 0.00 | 52 | |
| 20260901013527 | 62 | 283 | 10.0 | 21.0 | 0.00 | 0.00 | 0.00 | 53 | |
| 20260901012535 | 61 | 275 | 12.0 | 25.0 | 0.00 | 0.00 | 0.00 | 53 | |
| 20260901011547 | 62 | 279 | 9.0 | 19.0 | 0.00 | 0.00 | 0.00 | 54 | |
| 20260901010535 | 61 | 280 | 9.0 | 17.0 | 0.00 | 0.00 | 0.00 | 56 | |
| 20260901005527 | 61 | 272 | 11.0 | 25.0 | 0.00 | 0.00 | 0.00 | 57 | |
| 20260901004555 | 60 | 276 | 9.0 | 19.0 | 0.00 | 0.00 | 0.00 | 59 | |
| 20260901003527 | 60 | 279 | 10.0 | 22.0 | 0.00 | 0.00 | 0.00 | 60 | |
| 20260901002535 | 60 | 278 | 7.0 | 15.0 | 0.00 | 0.00 | 0.00 | 63 | |
| 20260901001608 | 60 | 270 | 5.0 | 15.0 | 0.00 | 0.00 | 0.00 | 64 | |
| 20260901000535 | 59 | 286 | 6.0 | 13.0 | 0.00 | 0.00 | 0.00 | 66 | |
| 20260831235526 | 58 | 283 | 6.0 | 16.0 | 0.00 | 0.00 | 0.00 | 67 | |
| 20260831234535 | 58 | 281 | 8.0 | 17.0 | 0.00 | 0.00 | 0.00 | 67 | |
| 20260831233527 | 57 | 277 | 8.0 | 17.0 | 0.00 | 0.00 | 0.00 | 68 | |
| 20260831232555 | 57 | 278 | 8.0 | 15.0 | 0.00 | 0.00 | 0.00 | 68 | |
| 20260831231526 | 57 | 292 | 6.0 | 13.0 | 0.00 | 0.00 | 0.00 | 68 | |
| 20260831230535 | 56 | 285 | 6.0 | 13.0 | 0.00 | 0.00 | 0.00 | 69 | |
| 20260831225527 | 55 | 293 | 5.0 | 9.0 | 0.00 | 0.00 | 0.00 | 71 | |
| 20260831224535 | 55 | 291 | 4.0 | 11.0 | 0.00 | 0.00 | 0.00 | 72 | |
| 20260831223527 | 57 | 273 | 2.0 | 6.0 | 0.00 | 0.00 | 0.00 | 69 | |
| 20260831222534 | 54 | 0.0 | 0.0 | 0.00 | 0.00 | 0.00 | 73 | ||
| 20260831221527 | 51 | 160 | 0.0 | 1.0 | 0.00 | 0.00 | 0.00 | 75 | |
| 20260831220535 | 50 | 0.0 | 0.0 | 0.00 | 0.00 | 0.00 | 76 | ||
| 20260831215527 | 49 | 0.0 | 0.0 | 0.00 | 0.00 | 0.00 | 77 | ||
| 20260831214616 | 50 | 195 | 0.0 | 1.0 | 0.00 | 0.00 | 0.00 | 78 | |
| 20260831213527 | 49 | 0.0 | 0.0 | 0.00 | 0.00 | 0.00 | 82 | ||
| 20260831212535 | 46 | 0.0 | 0.0 | 0.00 | 0.00 | 0.00 | 91 | ||
| 20260831211528 | 45 | 0.0 | 0.0 | 0.00 | 0.00 | 0.00 | 98 | ||
| 20260831210535 | 44 | 0.0 | 0.0 | 0.00 | 0.00 | 0.00 | 98 | ||
| 20260831205526 | 42 | 0.0 | 0.0 | 0.00 | 0.00 | 0.00 | 99 | ||
| 20260831204535 | 40 | 0.0 | 0.0 | 0.00 | 0.00 | 0.00 | 98 | ||
| 20260831203527 | 39 | 0.0 | 0.0 | 0.00 | 0.00 | 0.00 | 98 | ||
| 20260831202535 | 38 | 0.0 | 0.0 | 0.00 | 0.00 | 0.00 | 98 | ||
| 20260831201527 | 39 | 0.0 | 0.0 | 0.00 | 0.00 | 0.00 | 98 | ||
| 20260831200535 | 40 | 0.0 | 0.0 | 0.00 | 0.00 | 0.00 | 98 | ||
| 20260831195547 | 40 | 0.0 | 0.0 | 0.00 | 0.00 | 0.00 | 98 | ||
| 20260831194537 | 40 | 0.0 | 0.0 | 0.00 | 0.00 | 0.00 | 98 | ||
| 20260831193528 | 39 | 0.0 | 0.0 | 0.00 | 0.00 | 0.00 | 98 | ||
| 20260831192555 | 39 | 0.0 | 0.0 | 0.00 | 0.00 | 0.00 | 98 | ||
| 20260831191527 | 39 | 0.0 | 0.0 | 0.00 | 0.00 | 0.00 | 97 | ||
| 20260831190535 | 39 | 0.0 | 0.0 | 0.00 | 0.00 | 0.00 | 97 | ||
| 20260831185547 | 38 | 0.0 | 0.0 | 0.00 | 0.00 | 0.00 | 97 | ||
| 20260831184535 | 38 | 0.0 | 0.0 | 0.00 | 0.00 | 0.00 | 97 | ||
| 20260831183527 | 39 | 0.0 | 0.0 | 0.00 | 0.00 | 0.00 | 96 | ||
| 20260831182535 | 39 | 0.0 | 0.0 | 0.00 | 0.00 | 0.00 | 96 | ||
| 20260831181527 | 39 | 0.0 | 0.0 | 0.00 | 0.00 | 0.00 | 96 | ||
| 20260831180535 | 39 | 0.0 | 0.0 | 0.00 | 0.00 | 0.00 | 96 | ||
| 20260831175527 | 39 | 0.0 | 0.0 | 0.00 | 0.00 | 0.00 | 95 | ||
| 20260831174555 | 40 | 202 | 0.0 | 1.0 | 0.00 | 0.00 | 0.00 | 95 | |
| 20260831173527 | 40 | 205 | 1.0 | 2.0 | 0.00 | 0.00 | 0.00 | 95 | |
| 20260831172535 | 41 | 0.0 | 0.0 | 0.00 | 0.00 | 0.00 | 94 | ||
| 20260831171528 | 41 | 204 | 1.0 | 2.0 | 0.00 | 0.00 | 0.00 | 94 | |
| 20260831170535 | 41 | 201 | 0.0 | 1.0 | 0.00 | 0.00 | 0.00 | 92 | |
| 20260831165527 | 42 | 199 | 0.0 | 1.0 | 0.00 | 0.00 | 0.00 | 93 | |
| 20260831164535 | 42 | 204 | 1.0 | 2.0 | 0.00 | 0.00 | 0.00 | 92 | |
| 20260831163527 | 42 | 0.0 | 0.0 | 0.00 | 0.00 | 0.00 | 92 | ||
| 20260831162535 | 42 | 199 | 1.0 | 2.0 | 0.00 | 0.00 | 0.00 | 93 | |
| 20260831161543 | 42 | 0.0 | 0.0 | 0.00 | 0.00 | 0.00 | 91 | ||
| 20260831160535 | 41 | 203 | 1.0 | 2.0 | 0.00 | 0.00 | 0.00 | 92 | |
| 20260831155547 | 42 | 204 | 1.0 | 2.0 | 0.00 | 0.00 | 0.00 | 90 | |
| 20260831154555 | 43 | 0.0 | 0.0 | 0.00 | 0.00 | 0.00 | 92 | ||
| 20260831153548 | 41 | 0.0 | 0.0 | 0.00 | 0.00 | 0.00 | 91 | ||
| 20260831152535 | 42 | 0.0 | 0.0 | 0.00 | 0.00 | 0.00 | 89 | ||
| 20260831151527 | 42 | 205 | 1.0 | 1.0 | 0.00 | 0.00 | 0.00 | 88 | |
| 20260831150536 | 43 | 195 | 0.0 | 1.0 | 0.00 | 0.00 | 0.00 | 88 | |
| 20260831145527 | 43 | 204 | 1.0 | 2.0 | 0.00 | 0.00 | 0.00 | 88 | |
| 20260831144535 | 43 | 201 | 0.0 | 1.0 | 0.00 | 0.00 | 0.00 | 87 | |
| 20260831143527 | 44 | 212 | 1.0 | 2.0 | 0.00 | 0.00 | 0.00 | 87 | |
| 20260831142535 | 44 | 200 | 0.0 | 1.0 | 0.00 | 0.00 | 0.00 | 87 | |
| 20260831141528 | 44 | 191 | 0.0 | 1.0 | 0.00 | 0.00 | 0.00 | 85 | |
| 20260831140535 | 44 | 214 | 1.0 | 2.0 | 0.00 | 0.00 | 0.00 | 85 | |
| 20260831135527 | 44 | 204 | 1.0 | 3.0 | 0.00 | 0.00 | 0.00 | 83 | |
| 20260831134535 | 44 | 210 | 2.0 | 3.0 | 0.00 | 0.00 | 0.00 | 83 | |
| 20260831133527 | 44 | 211 | 2.0 | 2.0 | 0.00 | 0.00 | 0.00 | 83 | |
| 20260831132535 | 45 | 207 | 1.0 | 3.0 | 0.00 | 0.00 | 0.00 | 82 | |
| 20260831131527 | 46 | 199 | 1.0 | 2.0 | 0.00 | 0.00 | 0.00 | 81 | |
| 20260831130551 | 46 | 195 | 1.0 | 2.0 | 0.00 | 0.00 | 0.00 | 80 | |
| 20260831125527 | 46 | 201 | 1.0 | 2.0 | 0.00 | 0.00 | 0.00 | 78 | |
| 20260831124535 | 46 | 211 | 1.0 | 2.0 | 0.00 | 0.00 | 0.00 | 77 | |
| 20260831123527 | 47 | 210 | 1.0 | 2.0 | 0.00 | 0.00 | 0.00 | 76 | |
| 20260831122555 | 48 | 212 | 2.0 | 3.0 | 0.00 | 0.00 | 0.00 | 75 | |
| 20260831121547 | 49 | 204 | 1.0 | 3.0 | 0.00 | 0.00 | 0.00 | 73 | |
| 20260831120535 | 49 | 206 | 2.0 | 3.0 | 0.00 | 0.00 | 0.00 | 74 | |
| 20260831115528 | 50 | 211 | 2.0 | 3.0 | 0.00 | 0.00 | 0.00 | 71 | |
| 20260831114535 | 50 | 212 | 1.0 | 2.0 | 0.00 | 0.00 | 0.00 | 72 | |
| 20260831113527 | 51 | 205 | 1.0 | 2.0 | 0.00 | 0.00 | 0.00 | 71 | |
| 20260831112535 | 50 | 211 | 1.0 | 2.0 | 0.00 | 0.00 | 0.00 | 72 | |
| 20260831111527 | 50 | 202 | 1.0 | 2.0 | 0.00 | 0.00 | 0.00 | 70 | |
| 20260831110535 | 51 | 218 | 0.0 | 1.0 | 0.00 | 0.00 | 0.00 | 71 | |
| 20260831105527 | 52 | 203 | 1.0 | 2.0 | 0.00 | 0.00 | 0.00 | 76 | |
| 20260831104535 | 53 | 0.0 | 0.0 | 0.00 | 0.00 | 0.00 | 74 | ||
| 20260831103527 | 53 | 0.0 | 0.0 | 0.00 | 0.00 | 0.00 | 73 | ||
| 20260831102535 | 54 | 244 | 1.0 | 2.0 | 0.00 | 0.00 | 0.00 | 72 | |
| 20260831101547 | 53 | 235 | 0.0 | 1.0 | 0.00 | 0.00 | 0.00 | 69 | |
| 20260831100535 | 54 | 234 | 1.0 | 1.0 | 0.00 | 0.00 | 0.00 | 69 | |
| 20260831095547 | 54 | 242 | 1.0 | 2.0 | 0.00 | 0.00 | 0.00 | 69 | |
| 20260831094535 | 55 | 247 | 1.0 | 2.0 | 0.00 | 0.00 | 0.00 | 68 | |
| 20260831093527 | 55 | 248 | 1.0 | 2.0 | 0.00 | 0.00 | 0.00 | 66 | |
| 20260831091527 | 55 | 247 | 1.0 | 2.0 | 0.00 | 0.00 | 0.00 | 61 | |
| 20260831090535 | 56 | 247 | 1.0 | 2.0 | 0.00 | 0.00 | 0.00 | 59 | |
| 20260831085528 | 57 | 256 | 1.0 | 3.0 | 0.00 | 0.00 | 0.00 | 56 | |
| 20260831084535 | 57 | 259 | 2.0 | 5.0 | 0.00 | 0.00 | 0.00 | 53 | |
| 20260831083527 | 57 | 267 | 2.0 | 5.0 | 0.00 | 0.00 | 0.00 | 51 | |
| 20260831082535 | 58 | 272 | 3.0 | 5.0 | 0.00 | 0.00 | 0.00 | 49 | |
| 20260831081527 | 58 | 269 | 2.0 | 6.0 | 0.00 | 0.00 | 0.00 | 47 | |
| 20260831080535 | 59 | 270 | 3.0 | 5.0 | 0.00 | 0.00 | 0.00 | 44 | |
| 20260831075527 | 59 | 269 | 3.0 | 6.0 | 0.00 | 0.00 | 0.00 | 43 | |
| 20260831074535 | 60 | 263 | 3.0 | 5.0 | 0.00 | 0.00 | 0.00 | 42 | |
| 20260831073527 | 61 | 262 | 3.0 | 6.0 | 0.00 | 0.00 | 0.00 | 40 | |
| 20260831072536 | 62 | 278 | 4.0 | 9.0 | 0.00 | 0.00 | 0.00 | 38 | |
| 20260831071528 | 63 | 276 | 4.0 | 8.0 | 0.00 | 0.00 | 0.00 | 37 | |
| 20260831070535 | 64 | 277 | 3.0 | 7.0 | 0.00 | 0.00 | 0.00 | 37 | |
| 20260831065529 | 65 | 277 | 3.0 | 6.0 | 0.00 | 0.00 | 0.00 | 35 | |
| 20260831064535 | 66 | 275 | 4.0 | 8.0 | 0.00 | 0.00 | 0.00 | 34 | |
| 20260831063547 | 66 | 264 | 2.0 | 5.0 | 0.00 | 0.00 | 0.00 | 33 | |
| 20260831062519 | 66 | 289 | 3.0 | 6.0 | 0.00 | 0.00 | 0.00 | 32 | |
| 20260831061527 | 67 | 280 | 3.0 | 7.0 | 0.00 | 0.00 | 0.00 | 32 | |
| 20260831060520 | 67 | 286 | 3.0 | 7.0 | 0.00 | 0.00 | 0.00 | 30 | |
| 20260831055527 | 67 | 268 | 4.0 | 9.0 | 0.00 | 0.00 | 0.00 | 31 | |
| 20260831054520 | 68 | 284 | 4.0 | 7.0 | 0.00 | 0.00 | 0.00 | 32 | |
| 20260831053527 | 68 | 273 | 3.0 | 7.0 | 0.00 | 0.00 | 0.00 | 33 | |
| 20260831052519 | 69 | 261 | 4.0 | 7.0 | 0.00 | 0.00 | 0.00 | 32 | |
| 20260831051527 | 68 | 286 | 3.0 | 7.0 | 0.00 | 0.00 | 0.00 | 31 | |
| 20260831050520 | 68 | 281 | 6.0 | 10.0 | 0.00 | 0.00 | 0.00 | 29 | |
| 20260831045528 | 68 | 266 | 3.0 | 6.0 | 0.00 | 0.00 | 0.00 | 28 | |
| 20260831044600 | 68 | 288 | 4.0 | 7.0 | 0.00 | 0.00 | 0.00 | 28 | |
| 20260831043527 | 68 | 272 | 4.0 | 7.0 | 0.00 | 0.00 | 0.00 | 26 | |
| 20260831042519 | 68 | 285 | 4.0 | 9.0 | 0.00 | 0.00 | 0.00 | 25 | |
| 20260831041547 | 68 | 268 | 2.0 | 9.0 | 0.00 | 0.00 | 0.00 | 25 | |
| 20260831040519 | 68 | 272 | 4.0 | 9.0 | 0.00 | 0.00 | 0.00 | 25 | |
| 20260831035527 | 67 | 231 | 4.0 | 9.0 | 0.00 | 0.00 | 0.00 | 26 | |
| 20260831034520 | 68 | 257 | 4.0 | 9.0 | 0.00 | 0.00 | 0.00 | 26 |